Location: Bowden
(51.9167°N, 114.0333°W)
Time: 01:07:50
(UTC+00:00)

Envisat - Pass Details

Date: 07 December 2021
Orbit: 764 x 766 km, 98.2° (Epoch: 28 January)

Event Time Altitude Azimuth Distance (km) Brightness Sun altitude
Rises 11:59:20 0° 20° (NNE) 3,247 6.5 -31.2°
Reaches altitude 10° 12:01:51 10° 29° (NNE) 2,316 5.8 -30.8°
Maximum altitude 12:06:30 35° 95° (E) 1,229 4.5 -30.0°
Drops below altitude 10° 12:11:07 10° 161° (SSE) 2,299 5.7 -29.3°
Sets 12:13:36 0° 170° (S) 3,220 6.4 -29.0°
